This demonstration page uses our WeatherBlox Daily Observations layout. Learn more.

38.88101, -77.10428

Hourly Observations for August 6, 2019

Temp ( °F °C ) Dew Point ( °F °C ) Humidity (%) Winds ( mph kmh ) Pressure ( in mb ) Visibility ( mi km ) Precip ( " mm )
12:52 am 00:52 Cloudy 77 25 65 18.3 66 66 Calm 29.91 1013 10 16.09344 0 0
1:52 am 01:52 Cloudy 75 23.9 65 18.3 71 71 WSW 3 6 29.91 1013 10 16.09344 0 0
2:52 am 02:52 Cloudy 74 23.3 65 18.3 74 74 SW 6 9 29.91 1013 10 16.09344 0 0
3:52 am 03:52 Mostly Cloudy 73 22.8 65 18.3 76 76 S 5 7 29.91 1013 10 16.09344 0 0
4:52 am 04:52 Mostly Cloudy 73 22.8 65 18.3 76 76 SSW 3 6 29.88 1012 10 16.09344 0 0
5:52 am 05:52 Mostly Cloudy 73 22.8 65 18.3 76 76 Calm 29.88 1012 10 16.09344 0 0
6:52 am 06:52 Partly Cloudy 72 22.2 65 18.3 79 79 SW 5 7 29.88 1012 10 16.09344 0 0
7:52 am 07:52 Partly Cloudy 75 23.9 68 20 79 79 Calm 29.88 1012 10 16.09344 0 0
8:52 am 08:52 Mostly Sunny 77 25 69 20.6 77 77 SSE 5 7 29.88 1012 10 16.09344 0 0
9:52 am 09:52 Mostly Sunny 80 26.7 69 20.6 69 69 SSE 7 11 29.88 1012 10 16.09344 0 0
10:52 am 10:52 Partly Cloudy 83 28.3 69 20.6 63 63 SSE 7 11 29.88 1012 10 16.09344 0 0
11:52 am 11:52 Mostly Sunny 86 30 68 20 55 55 SSE 8 13 29.88 1012 10 16.09344 0 0
12:52 pm 12:52 Mostly Sunny 88 31.1 67 19.4 50 50 SSE 10 17 29.85 1011 10 16.09344 0 0
1:52 pm 13:52 Mostly Sunny 90 32.2 66 18.9 45 45 S 13 20 29.83 1010 10 16.09344 0 0
2:52 pm 14:52 Partly Cloudy 91 32.8 64 17.8 41 41 S 14 22 29.83 1010 10 16.09344 0 0
3:52 pm 15:52 Mostly Sunny 91 32.8 62 16.7 38 38 S 10 17 29.8 1009 10 16.09344 0 0
4:52 pm 16:52 Mostly Sunny 90 32.2 67 19.4 47 47 S 13 20 29.8 1009 10 16.09344 0 0
5:52 pm 17:52 Partly Cloudy 90 32.2 68 20 48 48 S 14 22 29.8 1009 10 16.09344 0 0
6:52 pm 18:52 Partly Cloudy 87 30.6 70 21.1 57 57 S 12 19 29.8 1009 10 16.09344 0 0
7:52 pm 19:52 Mostly Cloudy 85 29.4 70 21.1 61 61 S 12 19 29.8 1009 10 16.09344 0 0
8:52 pm 20:52 Mostly Cloudy with Thunderstorms 79 26.1 69 20.6 72 72 ENE 16 26 29.83 1010 10 16.09344 0 0
9:05 pm 21:05 Mostly Cloudy with Thunderstorms 76 24.4 69 20.6 79 79 NE 18 30 29.83 1010 10 16.09344 0 0
9:16 pm 21:16 Mostly Cloudy 76 24.4 69 20.6 79 79 ENE 12 19 29.83 1010 10 16.09344 0 0
9:52 pm 21:52 Mostly Cloudy 77 25 67 19.4 71 71 ESE 3 6 29.83 1010 10 16.09344 0 0
10:52 pm 22:52 Mostly Cloudy 78 25.6 67 19.4 69 69 SE 6 9 29.83 1010 10 16.09344 0 0
11:52 pm 23:52 Mostly Cloudy 78 25.6 70 21.1 76 76 S 8 13 29.83 1010 10 16.09344 0 0

Powered by AerisWeather